Find Starlink 31592

NORAD ID: 59467 Int'l Des: 2024-068 Owner: SPXS Country: US Constellation: starlink operational
LEOCIRCULAR

現在のビュー

3D地球を読み込み中...

About Starlink 31592

Starlink 31592 (NORAD 59467) is a starlink constellation satellite (v2 mini) launched Apr 10, 2024 by SPXS of US. It operates in LEO, CIRCULAR orbit with a mass of 730.00 kg.

次回通過

Passes for default location (London). Set your location on the main map for personalized predictions.

高度履歴

Loading altitude history...

軌道要素

1 59467U 24068N 26225.05462244 .00000108 00000-0 13446-4 0 9996
2 59467 42.9991 231.7142 0001034 282.0867 77.9869 15.27575422132437
Epoch: Aug 13, 2026 • Age: 10 hours

現在のステータス

高度 488.5 km
遠地点 / 近地点 N/A
速度 7.62 km/s
衛星直下点 -23.87°S, 59.52°W
打ち上げ日 Apr 10, 2024
運用期間 2.3 years
タイプ internet

技術仕様

分類 Payload
質量 730.00 kg
乾燥質量 700.00 kg
総質量 730.00 kg
長さ 0.30 m
直径 4.10 m
スパン 29.00 m
形状 Box + pan
製造者 SPXS
バスタイプ Starlink V2M
フェーズステータス In Orbit
所有者/国 SPXS/US

Most Searched